STARLINK-2704 (48643 NORAD) Tracking and Keplerian Element Data

This shows tracking and keplerian element data for the satellite.

Feedback or suggestion? Click here.




ElementValue
Catalog48643
NameSTARLINK-2704
Epoch Orbit1049
Epoch Day214.6764146
Epoch Year2021
RAAN103.4785
Inclination53.0552
Eccentricity0.0001764
Argument of Perigee88.1871
Mean Anonmoly271.932
Mean Motion15.06382727
Decay Rate6.15E-06
L11 48643U 21044F 21214.67641460 .00000615 00000-0 60245-4 0 9993
L22 48643 53.0552 103.4785 0001764 88.1871 271.9320 15.06382727 10495

Live tracking and technical data element details for STARLINK-2704 (NORAD 48643). STARLINK-2704 can be tracked NOW for your location showing map with azimuth and elevation plus other details from your city location.

Track the satellite on the map from your city or location and see movement details for azimuth, elevation, latitude, longitude, range, height, and movement on the map or in text.







IsCatalogInMostPopularTable: catalog: 48643, numindb: 15
Update: records affected: 1



GetName: 48643 STARLINK-2704

Hit Count: updated at: Tue, 03 Aug 2021 23:00:17 GMT